Location: Clanezzo
(45.7500°N, 9.6000°E)
Time: 04:09:08
(UTC+00:00)

Cosmos 1633 Rocket - Pass Details

Date: 12 May 2021
Orbit: 608 x 622 km, 82.5° (Epoch: 18 June)

Event Time Altitude Azimuth Distance (km) Brightness Sun altitude
Rises 19:12:02 0° 359° (N) 2,901 7.0 -5.2°
Reaches altitude 10° 19:14:28 10° 9° (N) 1,993 6.0 -5.6°
Maximum altitude 19:18:27 33° 74° (ENE) 1,056 4.0 -6.1°
Drops below altitude 10° 19:22:26 10° 139° (SE) 1,985 5.0 -6.7°
Enters shadow 19:23:02 - 142° (SE) 2,205 5.3 -6.8°
